Algona, IA

5:25 PM CDT on April 28, 2017 (GMT -0500)
Algona Municipal

Weather History for KAXA - October, 2013

Change the Weather History Date:

Friday, October 4, 2013

  Actual Average Record
Temperature  
Mean Temperature 65 °F -  
Max Temperature 71 °F 65 °F 87 °F (2005)
Min Temperature 59 °F 42 °F 30 °F (1999)
Growing Degree Days 15 (Base 50)    
Moisture  
Dew Point 62 °F    
Average Humidity 95    
Maximum Humidity 100    
Minimum Humidity 73    
Precipitation  
Precipitation 0.16 in - - ()
Sea Level Pressure  
Sea Level Pressure 29.82 in    
Wind  
Wind Speed 11 mph (ENE)    
Max Wind Speed 16 mph    
Max Gust Speed 22 mph    
Visibility 6 miles    
Events Fog , Rain    
Averages and records for this station are not official NWS values.
T = Trace of Precipitation, MM = Missing Value Source: NWS Daily Summary

Daily Weather History Graph

Daily Weather History Graph

Search for Another Location

Airport or City:

Trip Planner

Search our weather history database for the weather conditions in past years. The results will help you decide how hot, cold, wet, or windy it might be!

Date:

Astronomy

Oct. 04, 2013 Rise Set
Actual Time 7:18 AM CDT 6:52 PM CDT
Civil Twilight 6:49 AM CDT 7:20 PM CDT
Nautical Twilight 6:16 AM CDT 7:53 PM CDT
Astronomical Twilight 5:43 AM CDT 8:26 PM CDT
Moon 6:54 AM CDT (10/4) 6:34 PM CDT (10/4)
Length of Visible Light 12h 31m
Length of Day
11h 34m
Waning Crescent, 0% of the Moon is Illuminated
Oct 4
Waning Crescent
Oct 4
New
Oct 11
First Quarter
Oct 18
Full
Oct 26
Last Quarter

Hourly Weather History & Observations

Time (CDT) Temp. Dew Point Humidity Pressure Visibility Wind Dir Wind Speed Gust Speed Precip Events Conditions
12:15 AM 59.0 °F 59.0 °F 100% 29.86 in 2.0 mi NE 12.7 mph - N/A   Overcast
12:35 AM 59.0 °F 59.0 °F 100% 29.86 in 0.8 mi NNE 12.7 mph - N/A   Overcast
12:55 AM 59.0 °F 59.0 °F 100% 29.86 in 0.8 mi NNE 15.0 mph - N/A   Overcast
1:15 AM 59.0 °F 59.0 °F 100% 29.86 in 1.0 mi NNE 11.5 mph 17.3 mph N/A   Overcast
1:35 AM 59.0 °F 59.0 °F 100% 29.86 in 2.5 mi NNE 15.0 mph 20.7 mph N/A   Overcast
1:55 AM 59.0 °F 59.0 °F 100% 29.86 in 3.0 mi NNE 11.5 mph 18.4 mph N/A   Overcast
2:15 AM 59.0 °F 59.0 °F 100% 29.89 in 4.0 mi NNE 12.7 mph - N/A   Overcast
2:35 AM 59.0 °F 59.0 °F 100% 29.88 in 6.0 mi NE 11.5 mph - N/A   Overcast
2:55 AM 59.0 °F 59.0 °F 100% 29.87 in 6.0 mi NE 11.5 mph - N/A   Overcast
3:15 AM 59.0 °F 59.0 °F 100% 29.88 in 3.0 mi ENE 10.4 mph - N/A   Overcast
3:35 AM 59.0 °F 59.0 °F 100% 29.88 in 4.0 mi ENE 6.9 mph 12.7 mph N/A   Overcast
3:55 AM 59.0 °F 59.0 °F 100% 29.88 in 5.0 mi NE 8.1 mph - N/A   Overcast
4:15 AM 59.0 °F 59.0 °F 100% 29.88 in 3.0 mi NNE 6.9 mph 13.8 mph N/A   Overcast
4:35 AM 59.0 °F 59.0 °F 100% 29.86 in 3.0 mi NE 9.2 mph - N/A   Overcast
4:55 AM 59.0 °F 59.0 °F 100% 29.85 in 4.0 mi NE 11.5 mph - N/A   Overcast
5:15 AM 59.0 °F 59.0 °F 100% 29.84 in 3.0 mi NE 15.0 mph - N/A   Overcast
5:35 AM 59.0 °F 59.0 °F 100% 29.84 in 2.5 mi NE 10.4 mph 17.3 mph N/A   Overcast
5:55 AM 59.0 °F 59.0 °F 100% 29.85 in 2.5 mi NE 10.4 mph - N/A   Overcast
6:15 AM 59.0 °F 59.0 °F 100% 29.87 in 2.0 mi NE 8.1 mph 13.8 mph N/A   Overcast
6:35 AM 59.0 °F 59.0 °F 100% 29.88 in 2.0 mi NE 9.2 mph - N/A   Overcast
6:55 AM 59.0 °F 59.0 °F 100% 29.89 in 2.0 mi ENE 8.1 mph - N/A   Overcast
7:35 AM 59.0 °F 59.0 °F 100% 29.84 in 1.8 mi ENE 10.4 mph - N/A Rain Light Rain
7:55 AM 59.0 °F 59.0 °F 100% 29.85 in 1.5 mi NNE 9.2 mph 15.0 mph 0.01 in   Overcast
8:15 AM 59.0 °F 59.0 °F 100% 29.84 in 1.0 mi ENE 11.5 mph - N/A   Overcast
8:35 AM 59.0 °F 59.0 °F 100% 29.84 in 0.5 mi ENE 11.5 mph - N/A Fog Fog
8:55 AM 59.0 °F 59.0 °F 100% 29.85 in 0.2 mi NE 9.2 mph - N/A Fog Fog
9:15 AM 59.0 °F 59.0 °F 100% 29.86 in - NNE 10.4 mph - N/A   Overcast
9:35 AM 59.0 °F 59.0 °F 100% 29.86 in 0.2 mi NE 13.8 mph - N/A Fog Fog
9:55 AM 59.0 °F 59.0 °F 100% 29.88 in 0.2 mi NNE 10.4 mph - N/A Fog Fog
10:15 AM 59.0 °F 59.0 °F 100% 29.91 in 0.2 mi ENE 6.9 mph - N/A Fog Fog
10:35 AM 60.8 °F 60.8 °F 100% 29.88 in 0.2 mi NE 8.1 mph - N/A Fog Fog
10:55 AM 60.8 °F 60.8 °F 100% 29.87 in 1.2 mi NE 10.4 mph - N/A   Overcast
11:15 AM 62.6 °F 62.6 °F 100% 29.85 in 4.0 mi NE 10.4 mph - N/A   Overcast
11:35 AM 62.6 °F 62.6 °F 100% 29.85 in 7.0 mi NE 15.0 mph - N/A   Overcast
11:55 AM 64.4 °F 62.6 °F 94% 29.86 in 9.0 mi ENE 9.2 mph - N/A   Overcast
12:15 PM 66.2 °F 62.6 °F 88% 29.86 in 9.0 mi ENE 10.4 mph 16.1 mph N/A   Overcast
12:35 PM 66.2 °F 62.6 °F 88% 29.85 in 10.0 mi ENE 13.8 mph 21.9 mph N/A   Mostly Cloudy
12:55 PM 66.2 °F 62.6 °F 88% 29.84 in 10.0 mi East 16.1 mph 21.9 mph N/A   Overcast
1:15 PM 69.8 °F 62.6 °F 78% 29.83 in 10.0 mi East 11.5 mph 19.6 mph N/A   Mostly Cloudy
1:35 PM 69.8 °F 62.6 °F 78% 29.83 in 10.0 mi ESE 12.7 mph 20.7 mph N/A   Mostly Cloudy
1:55 PM 69.8 °F 62.6 °F 78% 29.83 in 10.0 mi East 12.7 mph - N/A   Overcast
2:15 PM 71.6 °F 62.6 °F 73% 29.82 in 10.0 mi East 11.5 mph - N/A   Overcast
2:35 PM 69.8 °F 62.6 °F 78% 29.81 in 10.0 mi East 12.7 mph 18.4 mph N/A   Overcast
2:55 PM 71.6 °F 62.6 °F 73% 29.80 in 10.0 mi East 10.4 mph 16.1 mph N/A   Overcast
3:15 PM 71.6 °F 62.6 °F 73% 29.79 in 10.0 mi East 11.5 mph 19.6 mph N/A   Overcast
3:35 PM 71.6 °F 64.4 °F 78% 29.79 in 10.0 mi East 13.8 mph - N/A   Overcast
3:55 PM 71.6 °F 64.4 °F 78% 29.79 in 10.0 mi ESE 13.8 mph 19.6 mph N/A   Overcast
4:15 PM 69.8 °F 64.4 °F 83% 29.79 in 10.0 mi East 11.5 mph - N/A   Overcast
4:35 PM 69.8 °F 66.2 °F 88% 29.79 in 10.0 mi ESE 9.2 mph 16.1 mph N/A   Overcast
4:55 PM 71.6 °F 66.2 °F 83% 29.78 in 10.0 mi ESE 8.1 mph 15.0 mph N/A   Overcast
5:15 PM 71.6 °F 66.2 °F 83% 29.78 in 10.0 mi East 8.1 mph - N/A   Overcast
5:35 PM 69.8 °F 66.2 °F 88% 29.78 in 8.0 mi ESE 8.1 mph - N/A   Overcast
5:55 PM 68.0 °F 66.2 °F 94% 29.77 in 8.0 mi ESE 8.1 mph - 0.01 in   Overcast
6:15 PM 66.2 °F 66.2 °F 100% 29.76 in 10.0 mi ESE 10.4 mph - N/A   Overcast
6:35 PM 66.2 °F 66.2 °F 100% 29.77 in 10.0 mi East 10.4 mph 17.3 mph N/A   Overcast
6:55 PM 66.2 °F 66.2 °F 100% 29.76 in 10.0 mi East 10.4 mph 19.6 mph 0.01 in   Overcast
7:15 PM 66.2 °F 66.2 °F 100% 29.77 in 10.0 mi East 11.5 mph 17.3 mph N/A   Overcast
7:35 PM 66.2 °F 66.2 °F 100% 29.77 in 10.0 mi East 8.1 mph - N/A   Overcast
7:55 PM 66.2 °F 66.2 °F 100% 29.74 in 10.0 mi East 10.4 mph - N/A   Overcast
8:15 PM 66.2 °F 66.2 °F 100% 29.72 in 10.0 mi East 9.2 mph 15.0 mph N/A   Overcast
8:35 PM - - N/A% 29.70 in 8.0 mi East 12.7 mph - N/A   Mostly Cloudy
8:55 PM 66.2 °F 66.2 °F 100% 29.74 in 6.0 mi ENE 9.2 mph - N/A   Mostly Cloudy
9:15 PM 66.2 °F 66.2 °F 100% 29.67 in 6.0 mi East 16.1 mph - N/A   Overcast
9:35 PM 68.0 °F 68.0 °F 100% 29.70 in 5.0 mi ESE 11.5 mph 17.3 mph N/A   Overcast
9:55 PM 68.0 °F 68.0 °F 100% 29.74 in 4.0 mi ESE 5.8 mph - 0.12 in   Light Drizzle
10:15 PM 64.4 °F 62.6 °F 94% 29.77 in 9.0 mi Variable 5.8 mph - N/A Rain Light Rain
10:35 PM 64.4 °F 62.6 °F 94% 29.75 in 10.0 mi Calm Calm - N/A   Overcast
10:55 PM 64.4 °F 62.6 °F 94% 29.74 in 10.0 mi East 5.8 mph - 0.01 in   Mostly Cloudy
11:15 PM 62.6 °F 62.6 °F 100% 29.73 in 10.0 mi Calm Calm - N/A   Clear
11:35 PM 62.6 °F 62.6 °F 100% 29.73 in 10.0 mi South 5.8 mph - N/A   Clear
11:55 PM 62.6 °F 62.6 °F 100% 29.74 in 10.0 mi SSW 9.2 mph - N/A   Clear